Regional Weather Roundup
Issued by NWS

Home | Current Version | Previous Version | Graphics & Text | Print | Product List | Glossary Off
Versions: 1 2 3 4 5 6 7 8 9 10 11 12 13 14 15 16 17 18 19 20 21 22 23 24 25 26 27 28 29 30 31 32 33 34 35 36 37 38 39 40 41 42 43 44 45 46 47 48 49 50

000
ASUS43 KDTX 040110
RWRMI
MICHIGAN HOURLY REGIONAL WEATHER ROUNDUP
NATIONAL WEATHER SERVICE DETROIT/PONTIAC MI
900 PM EDT SUN MAY 03 2015

NOTE: "FAIR" INDICATES FEW OR NO CLOUDS BELOW 12,000 FEET WITH NO
SIGNIFICANT WEATHER AND/OR OBSTRUCTION TO VISIBILITY.

MIZ047>049-052>055-059>063-066>070-074>076-081>083-040200-
SOUTHEAST LOWER MICHIGAN

CITY           SKY/WX    TMP DP  RH WIND       PRES   REMARKS
ADRIAN         CLEAR     68  46  45 SW7       30.02S
ALMA           CLOUDY    71  47  41 S3        29.95S
ANN ARBOR      CLEAR     71  45  39 SW9       30.01R
BAD AXE        MOCLDY    66  42  41 S7        29.96S
CARO           CLOUDY    69  45  41 CALM      29.96R
DETROIT CITY   MOCLDY    71  46  40 S8        30.00S
DETROIT        PTCLDY    72  47  40 S10       30.01R
FLINT          MOCLDY    73  44  35 S5        29.98R
GROSSE ILE     MOCLDY    61  54  77 S9        30.00S
HILLSDALE      PTCLDY    69  45  41 S3        30.02S
HOWELL         CLOUDY    71  44  37 S5        29.99S

CITY           SKY/WX    TMP DP  RH WIND       PRES   REMARKS
JACKSON        PTCLDY    70  46  42 S7        30.00S
LAMBERTVILLE   PTCLDY    72  41  33 S3        30.03S
LANSING        MOCLDY    71  46  40 S8        29.97S
LAPEER         FAIR      68  42  39 S6        29.99R
MASON          MOCLDY    70  44  38 S3        29.98S
MONROE         PTCLDY    72  45  37 SW5       30.01R
PONTIAC        MOCLDY    73  44  35 S8        29.99R
PORT HOPE        N/A     72  42  34 S3        29.93R
PORT HURON     MOCLDY    66  45  45 S7        30.00R
TRI CITIES     CLOUDY    74  47  38 SW8       29.95R
MIDLAND        CLOUDY    74  43  33 S5        29.93S
TROY           MOCLDY    75  41  29 SW6       30.02R
SAGINAW HB     CLOUDY    72  43  35 SW7       29.95S
$$
MIZ043>046-050>051-056>058-064>065-071>073-077>080-040200-
SOUTHWEST LOWER MICHIGAN

CITY           SKY/WX    TMP DP  RH WIND       PRES   REMARKS
BATTLE CREEK   MOCLDY    71  46  40 S10       29.99S
BENTON HARBOR  CLOUDY    73  46  38 S9        29.94S
BIG RAPIDS     MOCLDY    72  41  32 SW7       29.92F
COLDWATER      PTCLDY    70  43  38 S6        30.00R
FREMONT        CLOUDY    69  40  34 CALM      29.91F
HOLLAND        CLOUDY    71  47  42 S7        29.93F
GRAND RAPIDS   MOCLDY    70  47  43 S8        29.94S
IONIA          FAIR      73  44  36 S7        29.95S
KALAMAZOO      MOCLDY    71  46  40 S7        29.98R
LUDINGTON      MOCLDY    69  48  47 SW14G20   29.89S
MARSHALL       MOCLDY    69  47  43 S5        29.98S
MOUNT PLEASANT MOCLDY    72  43  34 S3        29.93F
MUSKEGON       CLOUDY    68  42  38 S6        29.91F
SOUTH HAVEN    CLOUDY    75  41  28 S8        29.94S
$$
MIZ016>042-040200-
NORTHERN LOWER MICHIGAN

CITY           SKY/WX    TMP DP  RH WIND       PRES   REMARKS
ALPENA         PTCLDY    73  45  36 S7        29.88S
BEAVER ISLAND  PTCLDY    68  45  43 SW13G25   29.84S
BELLAIRE       CLOUDY    73  46  39 S6        29.87S
CADILLAC       PTCLDY    69  47  45 S7        29.91F
CHARLEVOIX     PTCLDY    71  47  42 S7G17     29.88S
FRANKFORT      MOCLDY    72  44  37 S13G26    29.85F
GAYLORD        PTCLDY    70  44  39 SW12      29.89S
GRAYLING       PTCLDY    70  44  38 S7        29.91F
HARBOR SPRINGS PTCLDY    56  41  57 CALM      29.87R
HOUGHTON LAKE  PTCLDY    69  45  41 SW10G18   29.92S
MANISTEE       MOCLDY    70  48  46 S6G17     29.88F
OSCODA         MOCLDY    71  45  38 S6        29.91R
PELLSTON       PTCLDY    72  45  37 SW8       29.86S
ROGERS CITY    PTCLDY    67  48  50 SE6       29.87F
TRAVERSE CITY  MOCLDY    73  48  41 VRB7      29.85F
$$
MIZ007>008-015-040200-
EASTERN UPPER MICHIGAN

CITY           SKY/WX    TMP DP  RH WIND       PRES   REMARKS
KINROSS        CLOUDY    64  45  48 S7        29.87R
MACKINAC ISLAN MOCLDY    60  42  52 NE7       29.87R
NEWBERRY       CLOUDY    61  45  56 W15       29.89R
S. S. MARIE    CLOUDY    67  44  43 VRB5      29.85R
MUNISING         N/A     62  55  77 S12       29.78F
$$
MIZ004>006-011>014-085-040200-
CENTRAL UPPER MICHIGAN

CITY           SKY/WX    TMP DP  RH WIND       PRES   REMARKS
MANISTIQUE     LGT RAIN  49  42  75 CALM      29.86R
ESCANABA       CLOUDY    64  46  52 SE7       29.78R
MENOMINEE      CLEAR     72  52  49 SW15G24   29.76R
SAWYER-GWINN   MOCLDY    61  54  77 SE7       29.79R
$$
MIZ001>003-009>011-084-040200-
WESTERN UPPER MICHIGAN

CITY           SKY/WX    TMP DP  RH WIND       PRES   REMARKS
IRON MOUNTAIN  HVY RAIN  61  54  77 N8        29.79R
HOUGHTON       PTCLDY    60  44  55 NW14      29.80R
COPPER HARBOR    N/A     58  43  57 VRB3      29.78R
IRONWOOD       MOCLDY    61  39  44 NW7       29.84S
$$

ABBREVIATIONS USED IN REMARKS
   TC - TEMPERATURE IN CELSIUS
  WCI - WIND CHILL INDEX
   HX - HEAT INDEX
  VSB - VISIBILITY




USA.gov is the U.S. government's official web portal to all federal, state and local government web resources and services.